Date,TemperatureHighF,TemperatureAvgF,TemperatureLowF,DewpointHighF,DewpointAvgF,DewpointLowF,HumidityHigh,HumidityAvg,HumidityLow,PressureMaxIn,PressureMinIn,WindSpeedMaxMPH,WindSpeedAvgMPH,GustSpeedMaxMPH,PrecipitationSumIn
2013-1-6,39,38,36,37,28,23,100,68,60,28.27,28.15,8,4,14,0.00
2013-1-7,49,36,28,23,17,15,60,47,28,28.42,28.27,5,2,8,0.00
2013-1-8,55,40,30,20,16,13,52,39,20,28.48,28.33,5,1,10,0.00
2013-1-9,50,44,37,47,33,15,100,67,37,28.54,28.33,5,1,7,0.00
2013-1-10,62,53,44,48,42,36,100,69,39,28.54,28.30,6,1,7,0.00
2013-1-11,62,56,52,57,49,35,100,79,48,28.30,28.15,8,2,14,0.00
2013-1-12,69,60,55,64,58,55,100,93,67,28.24,28.15,7,1,10,0.00
2013-1-13,70,60,51,56,48,41,100,68,35,28.18,28.07,7,1,9,0.00
2013-1-14,58,47,37,58,46,35,100,96,85,28.30,28.12,8,3,13,0.00
2013-1-15,48,44,38,48,44,38,100,100,97,28.21,28.01,7,2,17,0.00
2013-1-16,53,48,43,53,48,41,100,99,92,28.09,27.95,7,2,14,0.00
2013-1-17,33,32,29,33,31,24,100,95,78,30.19,28.04,2,0,5,0.00
2013-1-18,39,28,22,26,22,18,93,77,47,30.46,30.19,0,0,0,0.00
2013-1-19,44,31,23,29,22,19,92,72,38,30.34,30.10,6,1,10,0.00
2013-1-20,46,34,29,26,23,19,82,65,39,30.13,30.07,9,3,14,0.00
2013-1-21,41,33,26,6,0,-5,26,24,23,30.01,28.12,10,6,20,0.00
2013-1-22,27,23,18,-3,-9,-12,29,23,21,30.22,30.01,9,5,18,0.00
2013-1-23,36,30,20,12,4,-9,47,33,26,30.25,30.01,9,4,21,0.00
2013-1-24,37,27,19,18,2,-8,50,35,23,30.40,29.99,10,4,17,0.00
2013-1-25,32,26,20,32,15,-5,100,68,33,30.28,30.01,5,2,8,0.00
2013-1-26,34,31,26,32,26,21,100,83,63,30.28,30.04,5,1,10,0.00
2013-1-27,44,33,23,28,22,18,88,66,42,30.37,30.25,0,0,0,0.00
2013-1-28,59,46,35,45,32,22,91,60,35,30.31,30.19,0,0,0,0.00
2013-1-29,71,54,44,58,44,38,100,74,32,30.19,29.95,0,0,0,0.00
2013-1-30,66,57,43,55,50,37,100,79,48,29.93,29.51,0,0,0,0.00
2013-1-31,43,32,29,37,16,8,80,51,33,29.99,29.51,0,0,0,0.00
2013-2-1,35,22,14,28,2,-6,84,42,32,30.31,29.81,0,0,0,0.00
2013-2-2,29,23,16,26,12,0,91,63,33,30.25,29.95,10,2,17,0.00
2013-2-3,34,31,27,30,24,10,100,77,48,30.04,29.87,9,5,21,0.00
2013-2-4,40,29,17,18,12,7,82,52,29,30.04,29.87,3,1,7,0.00
2013-2-5,49,38,32,31,24,15,80,56,41,29.95,29.84,6,2,14,0.00
2013-2-6,55,41,31,33,21,12,87,49,20,30.22,29.93,6,2,14,0.00
2013-2-7,52,44,37,30,22,15,61,43,33,30.16,29.93,6,2,10,0.00
2013-2-8,51,40,33,45,28,16,100,64,31,30.19,29.87,13,4,23,0.00
2013-2-9,52,36,26,16,12,7,56,38,20,30.28,30.19,6,2,10,0.00
2013-2-10,61,46,36,41,17,8,91,37,16,30.25,29.99,8,2,15,0.00
2013-2-11,54,50,42,50,39,22,96,68,44,30.04,29.93,10,5,14,0.00
2013-2-12,52,41,32,21,17,13,51,38,26,30.13,29.87,8,1,10,0.00
2013-2-13,46,40,35,43,33,21,96,76,42,29.87,29.60,9,3,14,0.00
2013-2-14,49,37,28,28,20,15,76,52,30,30.04,29.87,9,3,13,0.00
2013-2-15,53,37,32,34,25,21,87,63,30,30.01,29.93,9,2,18,0.00
2013-2-16,34,29,23,27,14,1,79,55,31,29.99,29.87,10,4,17,0.00
2013-2-17,34,26,18,7,0,-3,62,33,22,30.13,29.93,10,4,22,0.00
2013-2-18,23,21,21,2,2,1,43,43,39,30.25,29.95,7,2,13,0.00
2013-2-19,21,21,21,2,2,2,43,43,43,30.01,29.87,14,6,26,0.00
2013-2-20,21,21,21,2,2,2,43,43,43,30.13,30.01,9,4,16,0.00
2013-2-21,21,21,21,2,2,2,43,43,43,30.19,30.01,5,2,11,0.00
2013-2-22,21,21,21,2,2,2,43,43,43,30.07,29.95,6,2,13,0.00
2013-2-23,21,21,21,2,2,2,43,43,43,29.99,29.81,6,2,7,0.00
2013-2-24,55,33,21,19,8,2,43,35,20,30.04,29.84,7,3,15,0.00
2013-2-25,57,41,31,21,15,10,45,35,22,30.04,29.90,7,2,12,0.00
2013-2-26,56,45,36,43,29,17,93,56,40,29.90,29.51,10,5,19,0.00
2013-2-27,44,39,35,31,25,20,82,58,40,29.78,29.60,10,6,21,0.00
2013-2-28,35,33,31,26,19,13,75,58,41,29.90,29.69,9,5,19,0.00
2013-3-1,36,33,31,30,26,22,88,76,63,29.90,29.81,6,2,13,0.00
2013-3-2,32,32,32,29,29,29,86,86,86,29.84,29.84,1,1,2,0.00
2013-3-6,30,29,29,24,21,17,84,72,59,30.13,29.93,0,0,3,0.00
2013-3-7,34,31,28,21,18,15,73,58,47,30.31,30.10,0,0,0,0.00
2013-3-8,47,35,29,19,16,14,59,46,29,30.34,30.19,0,0,0,0.00
2013-3-9,67,46,28,20,16,9,69,35,15,30.28,30.16,0,0,0,0.00
2013-3-10,72,56,43,24,20,12,38,25,16,30.16,30.07,0,0,0,0.00
2013-3-11,59,56,49,50,32,16,100,49,19,30.07,29.81,0,0,0,0.00
2013-3-12,50,43,35,50,31,17,100,69,34,30.01,29.78,5,0,10,0.00
2013-3-13,39,35,28,22,13,3,68,42,29,30.16,29.99,16,4,23,0.00
2013-3-14,44,31,24,10,6,2,43,34,23,30.28,30.10,8,4,18,0.00
2013-3-15,58,43,27,27,17,7,47,36,26,30.13,29.90,10,2,15,0.00
2013-3-16,68,57,45,48,35,26,74,46,27,29.93,29.78,14,5,22,0.00
2013-3-17,61,54,47,51,43,37,100,68,46,29.99,29.90,7,3,11,0.00
2013-3-18,59,47,40,48,38,29,100,73,38,29.95,29.81,8,3,15,0.00
2013-3-19,54,46,37,48,22,0,100,47,18,30.07,29.81,14,5,25,0.00
2013-3-20,50,39,28,26,6,-2,71,27,18,30.04,29.81,14,4,23,0.00
2013-3-21,35,27,21,10,3,-2,44,35,25,29.95,29.78,10,4,20,0.00
2013-3-22,46,30,18,10,6,2,55,37,20,30.04,29.90,6,2,13,0.00
2013-3-23,54,42,35,28,20,8,56,40,30,30.01,29.81,5,1,7,0.00
2013-3-24,50,44,41,42,35,25,95,73,46,29.84,29.45,8,4,15,0.00
2013-3-25,42,33,30,40,23,16,96,67,51,29.84,29.48,13,7,27,0.00
2013-3-26,30,29,29,24,23,23,78,78,78,29.84,29.84,5,4,9,0.00
2013-3-28,34,34,34,12,12,12,38,38,38,30.22,30.22,0,0,0,0.00
2013-3-29,51,39,28,33,18,10,76,45,21,30.25,30.16,10,3,20,0.00
2013-3-30,59,46,33,40,30,24,100,60,27,30.19,30.01,7,2,12,0.00
2013-3-31,58,50,44,55,46,28,100,89,48,29.99,29.81,7,2,15,0.00
2013-4-1,58,49,40,49,36,19,100,69,27,29.99,29.84,12,4,20,0.00
2013-4-2,54,42,31,21,12,4,52,32,18,30.16,29.99,9,3,17,0.00
2013-4-3,54,42,30,14,9,4,41,26,18,30.25,30.10,7,2,13,0.00
2013-4-4,42,38,34,35,18,4,100,53,21,30.19,29.93,6,3,11,0.00
2013-4-10,77,68,64,45,41,35,50,38,22,28.09,28.04,2,0,5,0.00
2013-4-11,83,69,59,60,42,33,88,41,19,28.07,27.83,9,2,20,0.00
2013-4-12,64,58,48,59,44,25,100,67,25,28.07,27.74,13,4,23,0.00
2013-4-13,69,55,42,32,24,16,59,34,15,28.18,28.04,9,3,17,0.00
2013-4-14,75,60,44,40,25,20,55,29,15,28.15,28.09,8,2,15,0.00
2013-4-15,75,61,53,48,43,38,81,55,31,28.24,28.07,6,2,9,0.00
2013-4-16,83,67,53,51,44,36,86,49,20,28.39,28.24,6,2,13,0.00
2013-4-17,68,62,59,62,55,44,100,81,46,28.39,28.21,9,1,14,0.00
2013-4-18,81,68,58,54,46,34,83,51,20,28.21,28.04,7,2,17,0.00
2013-4-19,69,59,44,59,44,21,94,59,39,28.07,27.83,9,4,18,0.00
2013-4-20,63,47,35,24,18,10,50,32,16,28.33,28.07,7,2,13,0.00
2013-4-21,66,51,38,25,18,13,39,27,17,28.42,28.30,6,2,10,0.00
2013-4-22,69,54,41,31,24,18,53,33,17,28.42,28.27,5,2,9,0.00
2013-4-23,73,57,42,32,23,15,42,28,16,28.30,28.15,6,2,10,0.00
2013-4-24,72,58,46,57,41,30,90,55,28,28.27,28.07,13,3,17,0.00
2013-4-25,65,50,38,40,25,15,80,41,18,28.39,28.24,7,2,13,0.00
2013-4-26,69,54,39,27,20,13,50,29,15,28.42,28.36,5,1,10,0.00
2013-4-27,59,55,51,51,38,25,90,57,32,28.42,28.24,5,1,7,0.00
2013-4-28,57,53,50,54,50,48,100,91,82,28.24,28.04,7,1,10,0.00
2013-4-29,72,59,51,54,46,36,96,67,28,28.15,28.07,8,1,10,0.00
2013-4-30,81,65,53,55,44,34,94,52,20,28.27,28.09,5,1,9,0.00
2013-5-1,71,63,54,49,42,34,78,48,26,28.39,28.27,7,2,12,0.00
2013-5-2,73,63,56,46,41,36,67,47,26,28.36,28.30,5,2,10,0.00
2013-5-3,68,61,54,42,35,21,63,41,17,28.30,28.18,6,2,9,0.00
2013-5-4,60,56,52,37,29,22,46,35,30,28.21,28.07,6,4,14,0.00
2013-5-5,54,54,54,30,30,30,40,40,40,28.15,28.15,6,6,6,0.00
2013-5-6,54,54,54,30,30,30,40,40,40,28.15,28.15,6,6,6,0.00
2013-5-7,54,54,54,30,30,30,40,40,40,28.15,28.15,6,6,6,0.00
2013-5-8,54,54,54,30,30,30,40,40,40,28.15,28.15,6,6,6,0.00
2013-5-9,54,54,54,30,30,30,40,40,40,28.15,28.15,6,6,6,0.00
2013-5-10,54,54,54,30,30,30,40,40,40,28.15,28.15,6,6,6,0.00
2013-5-11,54,54,54,30,30,30,40,40,40,28.15,28.15,6,6,6,0.00
2013-5-12,54,54,54,30,30,30,40,40,40,28.15,28.15,6,6,6,0.00
2013-5-13,54,54,54,30,30,30,40,40,40,28.15,28.15,6,6,6,0.00
2013-5-14,75,61,53,41,32,25,45,34,23,28.24,28.12,8,5,14,0.00
2013-5-15,84,69,56,51,44,38,77,44,21,28.24,28.15,12,4,20,0.00
2013-5-16,77,66,56,56,48,41,87,56,29,28.21,28.12,7,2,9,0.00
2013-5-17,84,69,58,59,50,40,94,57,22,28.27,28.15,10,1,13,0.00
2013-5-18,72,66,60,66,60,56,100,83,56,28.27,28.18,6,1,6,0.00
2013-5-19,81,69,62,66,59,48,100,75,33,28.24,28.18,7,1,12,0.00
2013-5-20,83,67,61,66,60,49,100,83,31,28.30,28.15,5,1,6,0.00
2013-5-21,87,71,61,63,58,45,100,70,23,28.24,28.12,15,1,22,0.00
2013-5-22,83,67,59,66,58,48,100,79,31,28.15,28.04,7,1,13,0.00
2013-5-23,76,65,60,69,59,46,100,86,36,28.09,28.01,7,1,11,0.00
2013-5-24,60,60,60,56,56,56,87,87,87,28.07,28.07,0,0,0,0.00
2013-5-25,60,60,60,56,56,56,87,87,87,28.07,28.07,0,0,0,0.00
2013-5-26,60,60,60,56,56,56,87,87,87,28.07,28.07,0,0,0,0.00
2013-5-27,60,60,60,56,56,56,87,87,87,28.07,28.07,0,0,0,0.00
2013-5-28,60,60,60,56,56,56,87,87,87,28.07,28.07,0,0,0,0.00
2013-5-29,60,60,60,56,56,56,87,87,87,28.07,28.07,0,0,0,0.00
2013-5-31,67,60,60,56,56,50,87,85,53,28.27,28.07,0,0,0,0.00
2013-6-1,87,74,63,59,51,41,78,47,21,28.27,28.12,7,2,12,0.00
2013-6-2,72,68,65,67,61,48,97,80,42,28.18,28.07,7,1,12,0.00
2013-6-3,79,69,63,68,57,46,100,69,32,28.18,28.04,5,1,9,0.00
2013-6-4,84,69,58,57,50,43,93,55,25,28.24,28.15,2,1,5,0.00
2013-6-5,86,71,60,63,53,46,87,56,25,28.21,28.12,3,1,7,0.00
2013-6-6,79,68,64,64,60,52,94,79,40,28.15,27.95,5,0,10,0.00
2013-6-7,76,69,64,65,60,50,92,77,41,28.04,27.83,2,1,6,0.00
2013-6-8,81,68,59,64,54,46,100,66,29,28.27,28.04,6,1,10,0.00
2013-6-9,86,68,61,64,57,42,92,72,22,28.33,28.18,5,0,8,0.00
2013-6-10,77,69,65,69,62,48,100,79,37,28.21,28.07,8,2,15,0.00
2013-6-11,80,70,63,64,56,46,100,66,31,28.21,28.07,6,2,12,0.00
2013-6-12,90,76,63,68,60,55,95,63,34,28.21,28.09,7,2,13,0.00
2013-6-13,79,71,63,69,62,50,95,74,52,28.09,27.95,8,3,20,0.00
2013-6-14,78,66,57,57,46,35,92,53,22,28.24,28.04,3,1,6,0.00
2013-6-15,83,68,54,58,48,40,97,55,23,28.30,28.21,5,1,9,0.00
2013-6-16,74,66,65,58,51,50,67,59,48,28.24,28.21,1,0,1,0.00
2013-6-17,82,72,64,68,60,54,100,70,39,28.24,28.12,8,1,12,0.00
2013-6-18,72,67,62,66,61,53,96,81,52,28.12,28.04,3,0,5,0.00
2013-6-19,81,69,58,67,56,47,100,70,31,28.27,28.12,2,0,5,0.00
2013-6-20,84,70,61,62,56,47,92,67,29,28.39,28.27,2,0,5,0.00
2013-6-22,86,73,62,60,48,38,92,49,18,28.42,28.30,3,1,6,0.00
2013-6-23,88,74,62,62,52,43,85,52,21,28.39,28.30,5,1,8,0.00
2013-6-24,86,74,65,65,57,49,88,60,29,28.42,28.27,5,1,10,0.00
2013-6-25,83,72,66,66,61,53,93,70,39,28.33,28.18,5,1,13,0.00
2013-6-26,82,71,66,69,64,57,97,82,42,28.24,28.15,6,1,10,0.00
2013-6-27,81,70,64,73,66,61,100,89,52,28.09,27.95,8,2,17,0.00
2013-6-28,81,72,67,71,64,52,100,78,46,27.95,27.83,7,3,13,0.00
2013-6-29,82,72,64,68,56,44,100,63,27,27.92,27.83,8,2,13,0.00
2013-6-30,85,72,61,63,53,40,89,56,21,28.01,27.89,7,1,12,0.00
2013-7-1,85,71,65,66,60,49,95,73,29,28.12,27.98,5,1,9,0.00
2013-7-2,86,72,64,71,62,51,100,76,33,28.27,28.09,7,1,16,0.00
2013-7-3,72,67,63,71,66,63,100,95,89,28.36,28.24,3,0,6,0.00
2013-7-4,83,71,63,73,63,55,100,80,42,28.36,28.30,5,1,8,0.00
2013-7-5,86,73,66,70,61,52,100,69,33,28.45,28.30,6,1,9,0.00
2013-7-6,85,73,67,71,61,51,100,70,32,28.45,28.39,5,1,10,0.00
2013-7-7,76,70,67,70,64,59,96,82,61,28.45,28.30,6,1,10,0.00
2013-7-8,86,72,65,68,59,43,100,71,23,28.45,28.33,5,0,9,0.00
2013-7-9,89,75,65,66,58,47,92,62,24,28.45,28.36,5,1,8,0.00
2013-7-10,86,74,68,69,64,57,93,73,40,28.42,28.21,6,1,9,0.00
2013-7-11,81,72,68,70,65,57,96,80,47,28.24,28.15,5,1,8,0.00
2013-7-12,84,72,65,68,58,46,100,67,29,28.24,28.18,3,1,6,0.00
2013-7-13,83,73,64,60,54,46,83,56,30,28.39,28.21,5,2,9,0.00
2013-7-14,86,74,68,69,59,48,97,62,31,28.51,28.36,3,2,7,0.00
2013-7-15,88,76,66,65,56,48,88,54,26,28.60,28.45,3,2,7,0.00
2013-7-16,91,77,65,66,56,45,88,54,21,28.60,28.51,2,0,5,0.00
2013-7-17,89,75,68,69,64,53,95,71,33,28.60,28.48,6,1,9,0.00
2013-7-18,90,73,68,73,66,50,100,80,33,28.48,28.36,6,0,14,0.00
2013-7-19,88,75,66,73,64,58,100,73,38,28.39,28.30,6,1,10,0.00
2013-7-20,86,74,67,70,64,55,100,72,37,28.30,28.21,6,1,9,0.00
2013-7-21,82,72,68,71,65,51,98,79,40,28.27,28.18,5,1,10,0.00
2013-7-22,82,72,67,69,64,53,96,77,37,28.24,28.07,7,2,12,0.00
2013-7-23,86,74,69,69,62,48,100,71,29,28.15,28.04,8,3,12,0.00
2013-7-24,82,74,69,70,60,49,97,66,32,28.15,28.01,6,1,9,0.00
2013-7-25,82,71,63,62,51,38,93,54,22,28.30,28.12,2,1,6,0.00
2013-7-26,86,71,58,59,52,44,83,54,24,28.30,28.21,6,1,12,0.00
2013-7-27,80,70,67,68,63,52,94,79,44,28.27,28.12,5,0,8,0.00
2013-7-28,81,71,64,68,55,38,100,65,22,28.30,28.12,6,1,13,0.00
2013-7-29,81,67,57,56,46,36,86,52,21,28.42,28.24,5,1,9,0.00
2013-7-30,79,68,58,57,49,40,76,54,26,28.42,28.36,5,0,9,0.00
2013-7-31,69,66,63,67,63,57,96,89,73,28.42,28.18,2,0,3,0.00
2013-8-1,83,72,66,69,60,50,100,72,34,28.24,28.12,3,1,5,0.00
2013-8-2,83,71,62,67,54,40,96,62,23,28.33,28.21,3,0,5,0.00
2013-8-3,83,72,63,64,56,48,90,61,31,28.27,28.18,7,2,12,0.00
2013-8-4,83,73,65,66,54,39,94,58,21,28.30,28.18,6,1,8,0.00
2013-8-5,84,71,61,57,50,37,84,53,20,28.30,28.21,6,1,10,0.00
2013-8-6,83,72,64,64,56,48,80,59,30,28.27,28.18,5,1,7,0.00
2013-8-7,81,72,68,68,64,55,94,77,42,28.30,28.24,7,1,15,0.00
2013-8-8,76,73,67,74,67,67,100,84,72,28.27,28.24,1,0,5,0.00
2013-8-9,76,76,76,67,67,67,72,72,72,28.27,28.27,0,0,0,0.00
2013-8-10,76,76,76,67,67,67,72,72,72,28.27,28.27,0,0,0,0.00
2013-8-11,76,76,76,67,67,67,72,72,72,28.27,28.27,0,0,0,0.00
2013-8-12,76,76,76,67,67,67,72,72,72,28.27,28.27,0,0,0,0.00
2013-8-13,76,76,76,67,67,67,72,72,72,28.27,28.27,0,0,0,0.00
2013-8-14,76,76,76,67,67,67,72,72,72,28.27,28.27,0,0,0,0.00
2013-8-15,76,76,76,67,67,67,72,72,72,28.27,28.27,0,0,0,0.00
2013-8-16,76,76,76,67,67,67,72,72,72,28.27,28.27,0,0,0,0.00
2013-8-17,76,76,76,67,67,67,72,72,72,28.27,28.27,0,0,0,0.00
2013-8-18,76,76,76,67,67,67,72,72,72,28.27,28.27,0,0,0,0.00
2013-8-19,76,76,76,67,67,67,72,72,72,28.27,28.27,0,0,0,0.00
2013-8-20,76,76,76,67,67,67,72,72,72,28.27,28.27,0,0,0,0.00
2013-8-21,76,76,76,67,67,67,72,72,72,28.27,28.27,0,0,0,0.00
2013-8-22,76,76,76,67,67,67,72,72,72,28.27,28.27,0,0,0,0.00
2013-8-23,76,76,76,67,67,67,72,72,72,28.27,28.27,0,0,0,0.00
2013-8-24,83,71,62,67,50,37,92,52,20,28.54,28.27,3,1,7,0.00
2013-8-25,83,68,57,54,44,34,79,47,20,28.54,28.45,3,1,6,0.00
2013-8-26,83,68,57,60,52,46,87,60,31,28.48,28.39,5,1,9,0.00
2013-8-27,82,71,63,65,60,54,93,73,40,28.39,28.30,5,1,7,0.00
2013-8-28,87,74,67,70,61,50,100,68,28,28.30,28.24,6,1,10,0.00
2013-8-29,90,78,70,67,59,43,85,57,20,28.30,28.18,5,1,7,0.00
2013-8-30,89,76,67,66,58,46,89,59,23,28.27,28.21,6,1,10,0.00
2013-8-31,81,72,68,72,66,53,97,84,45,28.21,28.15,7,1,12,0.00
2013-9-1,81,70,67,71,66,54,100,88,40,28.18,28.09,5,0,9,0.00
2013-9-2,84,73,67,71,64,54,100,77,36,28.18,28.09,7,2,10,0.00
2013-9-3,82,70,62,68,58,44,100,71,27,28.24,28.07,6,1,10,0.00
2013-9-4,84,68,58,67,52,38,100,65,20,28.39,28.24,5,1,10,0.00
2013-9-5,84,68,58,62,50,38,93,58,21,28.42,28.30,3,1,6,0.00
2013-9-6,85,70,59,64,51,39,94,58,20,28.39,28.33,2,1,5,0.00
2013-9-7,84,70,59,65,53,43,95,60,25,28.33,28.24,7,1,10,0.00
2013-9-8,84,71,62,67,57,47,93,66,30,28.30,28.21,3,0,7,0.00
2013-9-9,89,74,63,71,57,44,100,63,22,28.39,28.27,5,1,8,0.00
2013-9-10,90,75,66,65,56,44,90,59,21,28.51,28.39,3,1,7,0.00
2013-9-11,82,73,68,68,61,54,90,68,41,28.51,28.36,5,1,9,0.00
2013-9-12,86,71,64,69,62,49,96,77,30,28.39,28.15,7,1,13,0.00
2013-9-13,75,66,56,66,49,30,100,62,21,28.15,28.04,5,2,7,0.00
2013-9-14,75,60,47,48,38,28,92,51,18,28.27,28.09,5,1,7,0.00
2013-9-15,80,64,53,52,45,36,85,54,21,28.33,28.21,6,1,8,0.00
2013-9-16,72,64,59,61,53,48,92,69,45,28.36,28.24,3,0,6,0.00
2013-9-17,76,64,56,53,44,39,80,51,30,28.36,28.30,5,2,7,0.00
2013-9-18,69,61,55,59,50,40,91,70,37,28.36,28.27,2,0,5,0.00
2013-9-19,76,66,62,64,59,52,100,79,44,28.33,28.24,6,1,9,0.00
2013-9-20,69,69,69,56,56,56,64,64,64,28.27,28.27,0,0,0,0.00
2013-9-21,69,69,69,56,56,56,64,64,64,28.27,28.27,0,0,0,0.00
2013-9-22,69,69,69,56,56,56,64,64,64,28.27,28.27,0,0,0,0.00
2013-9-23,69,69,69,56,56,56,64,64,64,28.27,28.27,0,0,0,0.00
2013-9-24,69,69,69,56,56,56,64,64,64,28.27,28.27,0,0,0,0.00
2013-9-25,69,69,69,56,56,56,64,64,64,28.27,28.27,0,0,0,0.00
2013-9-26,69,69,69,56,56,56,64,64,64,28.27,28.27,0,0,0,0.00
2013-9-27,69,69,69,56,56,56,64,64,64,28.27,28.27,0,0,0,0.00
2013-9-28,69,69,69,56,56,56,64,64,64,28.27,28.27,0,0,0,0.00
2013-9-29,69,69,69,56,56,56,64,64,64,28.27,28.27,0,0,0,0.00
2013-9-30,69,69,69,56,56,56,64,64,64,28.27,28.27,0,0,0,0.00
2013-10-1,69,69,69,56,56,56,64,64,64,28.27,28.27,0,0,0,0.00
2013-10-2,69,69,69,56,56,56,64,64,64,28.27,28.27,0,0,0,0.00
2013-10-3,69,69,69,56,56,56,64,64,64,28.27,28.27,0,0,0,0.00
2013-10-4,69,69,69,56,56,56,64,64,64,28.27,28.27,0,0,0,0.00
2013-10-5,69,69,69,56,56,56,64,64,64,28.27,28.27,0,0,0,0.00
2013-10-6,84,71,61,63,49,39,92,53,21,28.27,28.07,8,2,13,0.00
2013-10-7,69,60,52,62,45,30,96,62,25,28.24,27.95,7,2,13,0.00
2013-10-8,70,56,45,40,35,29,81,49,23,28.27,28.18,5,2,11,0.00
2013-10-9,73,58,49,37,31,26,56,38,19,28.30,28.24,5,2,8,0.00
2013-10-10,71,57,44,45,33,27,69,43,22,28.24,28.15,2,0,5,0.00
2013-10-11,77,61,48,52,37,24,88,49,15,28.18,28.09,3,0,5,0.00
2013-10-12,69,62,57,57,49,40,92,63,45,28.24,28.12,2,0,5,0.00
2013-10-13,75,64,57,62,54,43,100,73,34,28.39,28.24,3,0,5,0.00
2013-10-14,74,64,58,56,49,42,83,61,32,28.39,28.30,5,1,7,0.00
2013-10-15,74,62,53,52,46,40,89,59,30,28.36,28.21,3,0,5,0.00
2013-10-16,63,63,63,47,47,47,56,56,56,28.21,28.21,0,0,0,0.00
2013-10-17,63,63,63,47,47,47,56,56,56,28.21,28.21,0,0,0,0.00
2013-10-18,63,63,63,47,47,47,56,56,56,28.21,28.21,0,0,0,0.00
2013-10-19,63,63,63,47,47,47,56,56,56,28.21,28.21,0,0,0,0.00
2013-10-20,63,63,63,47,47,47,56,56,56,28.21,28.21,0,0,0,0.00
2013-10-21,63,63,63,47,47,47,56,56,56,28.21,28.21,0,0,0,0.00
2013-10-22,63,63,63,47,47,47,56,56,56,28.21,28.21,0,0,0,0.00
2013-10-23,63,63,63,47,47,47,56,56,56,28.21,28.21,0,0,0,0.00
2013-10-24,63,63,63,47,47,47,56,56,56,28.21,28.21,0,0,0,0.00
2013-10-25,63,63,63,47,47,47,56,56,56,28.21,28.21,0,0,0,0.00
2013-10-26,63,63,63,47,47,47,56,56,56,28.21,28.21,0,0,0,0.00
2013-10-27,63,63,63,47,47,47,56,56,56,28.21,28.21,0,0,0,0.00
2013-10-28,63,63,63,47,47,47,56,56,56,28.21,28.21,0,0,0,0.00
2013-10-29,63,63,63,47,47,47,56,56,56,28.21,28.21,0,0,0,0.00
2013-10-30,63,63,63,47,47,47,56,56,56,28.21,28.21,0,0,0,0.00
2013-10-31,63,63,63,47,47,47,56,56,56,28.21,28.21,0,0,0,0.00
2013-11-1,70,63,53,62,42,27,100,53,22,28.21,27.80,12,5,19,0.00
2013-11-2,61,50,42,42,27,17,85,44,19,28.12,27.89,9,2,17,0.00
2013-11-3,47,41,37,32,30,22,71,63,39,28.24,28.12,3,1,6,0.00
2013-11-4,46,42,42,32,30,15,68,65,29,28.45,28.24,2,1,6,0.00
2013-11-5,66,49,40,24,18,14,42,30,15,28.45,28.42,3,1,7,0.00
2013-11-6,74,58,44,45,36,23,84,48,21,28.42,28.18,10,3,15,0.00
2013-11-7,59,50,38,52,32,16,93,53,29,28.27,28.09,7,2,14,0.00
2013-11-8,52,38,29,22,13,6,63,38,19,28.39,28.21,2,2,6,0.00
2013-11-9,54,41,32,20,13,10,50,33,18,28.30,28.21,2,2,6,0.00
2013-11-10,62,45,33,28,17,6,69,36,16,28.33,28.21,2,2,6,0.00
2013-11-11,64,45,30,17,12,6,44,28,16,28.30,28.15,2,2,6,0.00
2013-11-12,48,35,26,28,13,3,60,41,23,28.51,28.09,2,2,6,0.00
2013-11-13,42,33,20,9,6,4,54,34,21,28.57,28.42,2,2,6,0.00
2013-11-14,42,42,42,5,5,5,21,21,21,28.51,28.51,2,2,6,0.00
2013-11-16,62,62,61,40,40,40,45,44,44,28.27,28.27,1,0,3,0.00
2013-11-17,68,59,49,58,48,38,95,70,33,28.27,27.95,6,2,16,0.00
2013-11-18,60,58,57,58,56,54,100,96,88,28.01,27.95,6,1,10,0.00
2013-11-19,57,57,38,56,56,13,97,97,35,28.24,28.01,3,1,7,0.00
2013-11-20,55,43,35,15,11,6,40,27,18,28.42,28.21,7,2,9,0.00
2013-11-21,44,44,44,6,6,6,20,20,20,28.36,28.36,1,1,0,0.00
2013-11-22,44,44,44,6,6,6,20,20,20,28.36,28.36,1,1,0,0.00
2013-11-23,44,44,44,6,6,6,20,20,20,28.36,28.36,1,1,0,0.00
2013-11-24,44,44,44,6,6,6,20,20,20,28.36,28.36,1,1,0,0.00
2013-11-25,44,44,44,6,6,6,20,20,20,28.36,28.36,1,1,0,0.00
2013-11-26,44,44,44,6,6,6,20,20,20,28.36,28.36,1,1,0,0.00
2013-11-27,44,28,21,29,14,1,87,57,20,28.36,27.77,8,4,17,0.00
2013-11-28,38,24,14,11,5,-2,62,45,27,28.45,28.18,5,1,7,0.00
2013-11-29,47,32,22,18,12,9,76,46,22,28.54,28.39,3,1,5,0.00
2013-11-30,53,38,30,16,12,10,42,36,21,28.48,28.27,6,2,9,0.00
2013-12-1,52,38,27,21,16,10,54,41,26,28.27,28.04,8,1,12,0.00
2013-12-2,49,44,38,30,25,19,61,48,39,28.04,27.83,3,1,5,0.00
2013-12-3,60,49,42,37,32,27,69,52,34,27.95,27.83,3,1,5,0.00
2013-12-4,69,55,45,44,38,31,87,55,26,28.12,27.95,6,2,10,0.00
2013-12-5,69,60,53,59,44,39,93,56,34,28.15,28.07,7,2,14,0.00
2013-12-6,62,53,39,62,51,35,100,94,71,28.18,28.01,12,2,19,0.00
2013-12-7,39,35,32,38,29,24,94,77,56,28.42,28.18,10,3,14,0.00
2013-12-8,43,38,34,39,32,26,100,79,55,28.33,28.07,5,3,5,0.00
2013-12-9,47,44,40,47,44,40,100,100,100,28.18,28.01,3,3,3,0.00
2013-12-10,42,35,24,42,27,9,100,74,40,28.27,27.98,3,3,3,0.00
2013-12-11,44,30,21,22,12,6,85,50,23,28.39,28.24,3,3,3,0.00
2013-12-12,35,27,22,10,5,-2,56,39,22,28.36,28.24,3,3,3,0.00
2013-12-13,45,31,21,10,5,2,48,35,20,28.30,28.15,3,3,9,0.00
2013-12-14,42,40,37,40,26,5,94,62,23,28.21,27.89,5,2,8,0.00
2013-12-15,44,35,30,44,25,16,100,68,56,28.18,27.83,8,5,15,0.00
2013-12-16,44,35,29,24,20,17,81,57,35,28.24,28.15,8,5,13,0.00
2013-12-17,50,41,32,30,20,6,67,42,30,28.21,28.01,13,4,23,0.00
2013-12-18,41,32,25,11,8,4,51,36,23,28.36,28.21,8,3,13,0.00
2013-12-19,53,38,27,12,8,3,41,29,18,28.36,28.21,3,1,6,0.00
2013-12-20,62,47,36,21,15,9,38,28,16,28.27,28.15,5,1,8,0.00
2013-12-21,72,61,49,46,38,21,59,43,31,28.18,27.98,9,3,16,0.00
2013-12-22,70,58,52,55,50,40,100,81,35,28.18,27.98,9,3,21,0.00
2013-12-23,54,43,31,54,38,16,100,82,52,28.33,28.09,9,4,15,0.00
2013-12-24,32,28,19,18,9,-1,61,45,29,28.48,28.27,8,3,15,0.00
2013-12-25,41,26,17,8,3,-2,55,38,21,28.48,28.30,7,1,10,0.00
2013-12-26,43,32,24,16,10,6,53,41,28,28.42,28.30,7,2,12,0.00
2013-12-27,48,33,24,12,8,3,47,35,19,28.48,28.36,6,1,7,0.00
2013-12-28,47,37,27,36,16,8,89,44,27,28.45,28.12,3,1,4,0.00
2013-12-29,44,43,40,44,42,36,100,96,83,28.12,27.86,9,4,16,0.00
2013-12-30,40,37,34,39,30,24,97,78,65,28.21,28.04,7,4,10,0.00
2013-12-31,34,34,34,28,28,28,77,77,77,28.42,28.18,9,3,15,0.00
2014-1-1,34,34,34,28,28,28,77,77,77,28.39,28.15,6,2,9,0.00
2014-1-2,34,34,34,28,28,28,77,77,77,28.15,27.74,12,3,20,0.00